Regional Weather Roundup
Issued by NWS Sioux Falls, SD

Home | Current Version | Previous Version | Graphics & Text | Print | Product List | Glossary Off
Versions: 1 2 3 4 5 6 7 8 9 10 11 12 13 14 15 16 17 18 19 20 21 22 23 24 25 26 27 28 29 30 31 32 33 34 35 36 37 38 39 40 41 42 43 44 45 46 47 48 49 50

000
ASUS43 KFSD 282210
RWRFSD

WEATHER ROUNDUP FOR SE SOUTH DAKOTA/SW MINNESOTA/NW IOWA
NATIONAL WEATHER SERVICE SIOUX FALLS SD
400 PM CST FRI NOV 28 2014

NOTE: "FAIR" INDICATES FEW OR NO CLOUDS BELOW 12,000 FEET WITH NO
SIGNIFICANT WEATHER AND OR OBSTRUCTIONS TO VISIBILITY.


SDZ038>040-050-052>070-282300-
SOUTHEAST SOUTH DAKOTA

CITY           SKY/WX    TMP DP  RH WIND       PRES   REMARKS
CHAMBERLAIN    CLEAR     48  28  45 NE3       29.63R
HURON          PTCLDY    38  26  62 CALM      29.66R
MADISON        FAIR      32  28  86 SE10      29.65R WCI  24
MITCHELL       CLEAR     42  29  59 E6        29.65F
SIOUX FALLS    MOCLDY    34  28  79 SE8       29.66S WCI  27
WINNER         FAIR      58  30  34 N5        29.61S
YANKTON        CLEAR     45  28  53 E9        29.65R
$$

MNZ071-072-080-081-089-090-097-098-282300-
SOUTHWEST MINNESOTA

CITY           SKY/WX    TMP DP  RH WIND       PRES   REMARKS
FAIRMONT       PTCLDY    25  19  80 SE12      29.74F WCI  14
JACKSON        PTCLDY    28  23  80 SE12      29.72F WCI  18
LUVERNE        PTCLDY    32  28  86 SE10      29.68R WCI  24
MARSHALL       PTCLDY    21  18  86 E10       29.72S WCI  10
MONTEVIDEO     PTCLDY    18  16  93 SE9       29.76S WCI   6
PIPESTONE      MOCLDY    32  27  80 SE9       29.65S WCI  24
REDWOOD FALLS  MOCLDY    23  17  78 E7        29.75F WCI  15
TRACY          PTCLDY    25  21  85 E10       29.72R WCI  15
WINDOM         PTCLDY    27  21  80 E12       29.71  WCI  16
WORTHINGTON    PTCLDY    28  23  80 SE12      29.69S WCI  18
$$

IAZ001>003-012>014-020>022-031-032-NEZ013-014-SDZ071-282300-
NORTHWEST IOWA

CITY           SKY/WX    TMP DP  RH WIND       PRES   REMARKS
CHEROKEE       PTCLDY    35  31  85 E5        29.69S
DENISON        CLEAR     43  34  70 SE10      29.68F
ESTHERVILLE    PTCLDY    26  22  84 SE14      29.72F WCI  14
LE MARS        PTCLDY    43  34  70 CALM      29.68R
ORANGE CITY    PTCLDY    36  30  80 SE9       29.68R
SHELDON        PTCLDY    32  28  86 SE14      29.67S WCI  22
SIOUX CITY     CLEAR     48  31  51 SE10      29.66F
SPENCER        MOCLDY    31  26  82 SE13      29.71F WCI  21
STORM LAKE     PTCLDY    32  28  86 SE14      29.69F WCI  22
$$

ABBREVIATIONS USED IN REMARKS
   TC - TEMPERATURE IN CELSIUS
  WCI - WIND CHILL INDEX
   HX - HEAT INDEX
  VSB - VISIBILITY




USA.gov is the U.S. government's official web portal to all federal, state and local government web resources and services.